Dewpoint
69 67 67 65 66 65 66 65 57 60 60 55 56 59 56 61 62 61 60 64 62 65 66 63 60 60 60 58 61 59 60 60 61 52 55 67 70 70 70 71 71 71 72 72 72 75 75 75 76 75 75 76 76 76 76 75 75 75 75 76 75 75 75 75 75 75 74 75 75 75 76 76 76 76 76 76 76 76 75 76 75 76 75 75 75 76 76 75 76 75 74 74 72 73 74 75 75
66 66 65 66 66 67 64 64 59 57 57 56 55 58 59 61 61 59 59 61 63 65 63 61 59 61 62 61 57 56 59 62 61 61 64 67 69 70 70 70 70 71 71 71 72 73 73 75 76 76 76 76 76 76 76 76 76 75 75 75 75 75 75 74 75 75 75 74 75 75 75 75 75 75 75 75 75 75 75 76 76 76 75 75 75 75 75 75 75 74 74 73 72 73 74 74 74
65 65 65 67 67 68 64 63 57 56 56 53 56 57 61 58 58 60 62 63 65 64 61 61 61 62 60 60 60 60 56 62 61 63 65 68 68 70 70 70 70 71 71 71 70 71 73 76 77 76 76 76 76 76 76 75 76 76 76 76 75 75 75 75 74 74 74 74 74 74 75 74 74 74 74 75 75 75 74 74 75 75 75 75 75 75 75 75 75 74 74 74 73 73 73 74 74
65 65 66 67 65 66 63 63 58 55 52 52 54 58 58 58 60 63 63 65 64 62 63 61 63 65 61 60 59 59 60 61 61 64 66 65 66 69 69 69 72 70 70 70 70 71 74 76 77 77 76 76 76 76 76 76 76 76 76 76 75 75 75 74 74 74 74 73 73 74 74 74 74 74 74 74 75 75 74 73 74 74 74 76 76 75 75 75 74 74 74 74 74 73 73 73 74
65 66 67 67 66 62 61 58 57 56 54 56 56 59 60 61 63 64 65 64 62 62 61 62 60 66 66 63 63 59 61 61 63 63 63 66 67 68 69 69 69 69 70 71 71 72 74 77 77 76 76 76 76 76 76 76 76 76 76 75 75 75 74 74 73 73 74 73 73 74 74 73 73 73 74 74 74 74 74 74 74 74 74 74 75 75 75 75 74 74 75 75 74 74 74 74 73
66 67 68 68 66 67 63 59 55 53 58 58 57 58 61 63 64 63 63 64 63 63 63 61 60 60 61 63 63 60 62 60 63 64 65 66 67 68 69 69 68 68 70 72 73 73 73 76 76 76 76 76 76 76 76 76 75 75 75 74 74 74 74 74 74 73 73 74 74 73 73 74 73 73 74 74 73 74 74 74 74 74 74 74 75 74 75 74 75 74 74 75 75 74 73 73 73
66 66 66 68 66 66 58 54 55 53 60 62 57 61 62 64 64 63 63 64 64 64 64 61 60 59 60 63 63 66 65 62 63 64 66 66 68 68 68 67 68 69 70 72 72 73 73 76 76 76 76 76 76 76 75 75 76 75 74 74 73 73 74 74 73 73 73 74 74 74 74 74 74 74 74 74 73 74 74 74 74 74 74 74 75 75 75 75 75 74 74 75 74 75 74 74 74
67 67 66 65 60 63 56 55 55 57 58 62 61 61 64 64 65 64 63 64 62 61 61 60 60 63 62 63 63 66 64 63 64 65 67 67 68 68 68 68 68 68 69 72 73 73 76 76 76 76 76 76 76 75 75 75 75 74 74 72 73 73 73 73 74 74 74 74 74 74 74 74 74 74 74 74 74 74 74 74 74 74 74 74 75 75 74 75 75 74 74 74 74 74 74 74 74
67 66 66 64 58 59 54 55 55 59 60 61 62 66 66 65 65 65 63 63 60 63 62 60 59 60 62 64 64 66 65 65 65 67 67 67 67 68 68 67 67 67 68 70 70 69 71 76 76 76 75 76 75 75 75 75 75 74 74 73 73 73 72 72 73 74 74 74 74 74 74 74 74 74 74 74 73 74 74 74 74 74 74 74 75 74 74 74 74 74 74 74 74 75 75 74 74
67 65 61 62 59 55 53 53 59 58 60 61 62 64 65 65 64 63 63 62 63 61 62 61 60 62 63 62 63 64 65 66 65 65 67 67 67 68 67 67 67 67 67 69 69 67 71 77 76 76 76 75 75 75 75 75 74 74 74 74 73 72 73 74 74 74 75 75 74 74 74 74 74 74 74 74 74 74 74 74 74 74 74 74 74 74 74 74 74 74 74 74 74 74 74 74 74
64 64 63 61 56 52 54 53 56 59 60 62 63 65 65 65 64 64 64 63 62 61 61 60 61 62 62 63 64 67 66 66 65 65 66 67 67 67 66 67 66 67 67 68 69 69 70 74 77 76 76 75 75 75 75 75 75 74 73 74 73 73 73 74 74 74 75 74 74 74 74 74 74 73 74 74 74 74 74 74 74 74 74 74 74 74 73 74 74 74 73 73 74 74 75 74 74
62 62 63 58 55 54 53 53 56 59 60 61 62 65 63 65 65 63 63 62 60 60 60 60 61 62 61 62 63 66 66 65 64 65 67 67 66 66 67 66 66 66 67 68 70 71 74 75 75 76 75 76 76 75 75 74 74 74 73 73 72 73 73 74 75 75 74 75 74 74 75 74 74 74 73 73 74 74 74 75 74 74 74 74 74 74 73 73 73 73 73 73 74 74 74 74 74
62 63 59 58 54 55 55 54 59 59 60 61 61 65 66 64 64 64 64 63 62 62 60 64 61 62 59 62 65 65 65 64 64 66 67 66 66 66 67 66 66 66 68 70 70 71 73 73 72 75 75 76 75 76 75 75 74 74 74 73 74 74 74 74 74 75 74 75 74 74 74 74 74 74 74 74 74 74 75 74 74 74 74 74 75 74 73 73 73 73 73 74 74 74 74 74 74
62 63 62 56 57 55 56 55 56 55 56 61 63 67 66 63 64 65 63 62 61 61 62 62 62 62 63 62 64 62 63 64 65 67 67 67 66 66 66 65 65 67 69 70 71 71 71 71 72 74 76 76 76 76 75 74 74 75 74 74 74 74 74 75 74 74 74 74 74 75 75 74 74 74 74 74 74 74 75 75 74 74 74 74 74 74 74 73 72 72 73 73 74 74 74 74 74
62 63 62 58 55 54 55 54 55 54 56 62 64 67 66 64 67 65 64 62 63 63 62 62 62 60 59 59 59 58 62 64 66 66 67 66 66 66 65 65 66 68 68 69 70 70 69 71 74 75 76 75 76 75 74 75 75 75 75 75 75 75 74 75 75 74 74 75 75 74 74 75 74 74 74 75 74 75 75 74 74 74 74 74 74 74 73 74 74 73 73 74 74 74 74 74 74
64 63 61 57 53 52 53 53 54 54 57 61 63 66 66 66 66 65 68 67 62 62 61 61 62 61 60 59 58 60 62 64 66 66 67 66 66 66 66 65 65 66 69 69 69 69 69 72 74 74 75 75 74 73 75 76 75 75 75 75 75 75 74 75 75 75 75 74 74 74 74 74 74 74 74 73 74 75 74 74 74 74 74 74 73 74 74 74 73 74 74 73 74 74 75 74 75
64 63 59 54 51 52 54 54 55 54 59 62 64 66 63 64 66 68 69 67 62 60 62 60 60 60 60 59 59 62 63 64 66 66 66 66 66 64 66 65 65 67 68 69 69 69 69 72 74 74 75 74 73 74 74 76 76 75 75 75 75 75 75 76 75 75 75 75 75 74 74 75 76 75 74 74 74 74 73 74 74 74 74 74 74 74 74 74 74 74 74 74 74 75 75 74 74
64 60 56 53 54 54 56 56 55 59 60 62 65 66 64 62 64 66 67 65 65 64 63 61 61 61 61 61 62 63 63 64 64 66 65 65 64 63 64 64 64 65 67 68 69 69 71 72 75 74 74 75 75 75 75 74 76 75 75 77 76 75 76 75 76 76 76 76 75 74 75 75 75 74 75 74 75 74 74 74 74 74 74 74 74 75 75 75 74 74 75 75 75 75 74 74 75
61 56 56 52 54 54 55 56 57 59 59 62 65 66 64 62 65 65 64 64 65 64 62 62 60 61 62 62 62 62 62 63 62 62 63 63 62 63 63 64 64 64 65 66 68 70 72 72 74 74 74 76 75 75 75 75 76 76 76 75 76 76 76 76 76 76 75 76 75 74 74 74 74 74 73 74 74 74 73 74 74 74 74 74 74 74 75 75 75 74 74 75 74 73 75 74 73
60 58 53 53 55 56 54 54 57 57 62 64 64 63 65 63 64 63 64 63 64 62 60 59 59 61 61 61 62 62 62 62 62 61 61 61 61 61 62 62 63 65 64 64 66 70 70 72 74 74 75 76 75 74 74 74 75 75 73 74 74 75 76 76 76 76 76 75 75 75 74 76 75 76 75 76 75 75 75 74 74 75 74 74 74 74 76 75 75 74 74 74 74 75 72 71 70
58 57 53 55 55 55 52 53 54 57 63 62 63 63 62 63 63 62 64 61 62 62 58 57 60 61 61 61 61 62 61 61 60 60 60 61 60 60 61 62 63 64 64 64 68 70 71 73 73 75 76 76 75 74 74 73 75 74 73 74 74 73 74 75 74 75 75 76 76 74 74 74 73 74 75 75 73 74 74 74 75 75 75 76 74 75 74 75 73 74 73 72 72 72 72 72 71
55 56 56 55 56 52 52 49 52 53 57 64 65 61 63 63 65 61 61 58 60 61 58 58 60 61 60 60 61 61 60 60 59 60 60 60 60 60 60 60 62 63 64 64 68 70 70 72 73 73 74 75 75 73 74 75 76 73 73 73 73 73 74 73 73 73 73 75 75 71 73 74 73 74 74 73 74 74 74 73 73 74 74 75 75 73 72 73 72 72 73 72 70 72 72 72 71
53 53 53 53 52 52 51 48 48 52 55 60 62 61 63 63 62 61 60 61 60 61 59 59 59 61 60 61 61 60 60 60 59 59 60 59 60 60 60 60 61 61 64 65 68 69 70 71 73 72 72 74 74 75 75 74 74 75 74 74 73 72 73 73 72 72 74 74 73 73 71 72 72 72 73 74 74 73 73 72 72 74 74 73 72 69 71 72 72 72 72 72 72 70 71 73 71
54 53 53 52 52 50 48 45 45 49 51 59 60 63 64 61 62 61 60 60 61 61 60 60 60 60 60 60 60 60 60 60 59 59 61 59 59 59 60 60 61 62 64 66 67 68 70 69 72 72 72 72 73 74 74 73 74 73 74 75 74 73 72 71 71 73 75 74 74 73 72 73 72 72 74 75 74 73 73 73 73 71 72 70 71 70 70 70 71 72 73 73 71 72 70 71 69
52 52 52 51 50 48 45 42 41 45 50 56 60 62 64 62 64 60 60 60 60 61 60 61 61 60 60 61 60 60 60 60 60 60 60 59 59 59 59 60 61 62 63 66 66 67 69 70 71 70 71 72 71 71 72 72 72 73 73 73 73 74 74 72 73 75 74 74 74 75 73 72 72 73 74 74 74 74 73 72 69 70 72 71 71 69 71 71 72 72 72 71 72 72 71 71 70
51 52 52 49 46 45 43 40 39 42 51 56 60 59 62 63 62 59 60 60 61 61 60 61 60 60 60 61 61 61 61 61 61 60 60 60 60 60 60 60 60 61 61 65 65 67 68 69 68 69 70 71 71 68 71 72 71 72 73 74 74 75 73 74 75 73 74 74 73 76 75 73 72 72 73 74 74 74 71 71 71 72 73 71 70 71 69 70 72 71 72 72 71 71 71 71 71
48 47 45 43 44 44 42 39 38 44 52 57 58 58 61 61 60 57 60 61 61 61 60 61 60 60 60 60 61 61 61 61 61 61 60 61 61 61 60 59 59 60 62 63 64 67 69 68 68 70 70 72 70 69 70 72 72 72 73 73 74 74 73 74 73 73 73 73 74 78 77 76 74 72 72 73 73 72 71 71 71 72 71 71 72 72 72 72 71 71 72 71 72 72 71 71 70
46 44 43 44 44 43 40 38 36 46 52 57 58 58 60 61 59 61 60 61 61 60 60 60 60 61 61 60 61 61 61 61 61 61 60 61 61 61 59 59 58 59 62 63 65 68 68 67 66 68 69 71 71 70 72 71 72 72 73 73 72 73 74 72 72 73 74 75 75 76 76 76 75 75 74 73 73 72 70 70 70 71 71 71 73 71 72 73 73 73 74 75 74 73 72 71 71
45 43 43 43 43 41 40 40 42 47 53 56 58 59 59 58 56 59 60 61 60 60 60 60 60 61 61 61 61 62 61 61 61 60 60 61 61 60 58 58 57 60 62 63 65 66 66 67 67 68 69 72 72 69 70 70 71 70 72 72 73 71 73 73 72 72 74 76 76 76 77 76 76 74 74 74 73 72 71 71 69 71 72 73 74 74 74 74 73 74 73 75 73 72 71 71 70
44 44 43 41 42 39 43 43 44 48 54 57 58 54 55 58 58 59 60 60 60 60 60 60 60 61 61 61 61 61 61 62 61 61 61 61 61 59 58 57 57 58 62 64 65 65 65 66 67 66 68 69 71 69 71 70 71 71 72 72 74 73 70 71 73 73 74 75 76 77 76 77 76 75 75 75 73 72 72 72 71 71 72 74 74 75 73 73 72 73 73 72 72 71 70 71 69
42 44 41 41 40 38 41 46 46 50 55 57 56 55 51 60 57 59 60 60 59 60 60 60 60 60 61 61 62 61 61 63 61 61 61 61 61 60 59 57 58 58 63 63 64 65 66 67 66 65 68 69 70 70 71 71 71 71 71 73 73 74 72 71 71 73 73 73 74 75 76 77 78 77 75 74 73 73 71 71 72 72 73 74 73 74 74 73 74 74 72 71 71 69 69 72 70
43 39 40 41 39 36 44 45 47 50 51 57 55 55 58 54 56 58 60 60 59 60 60 60 60 60 60 61 61 60 60 61 61 60 60 61 61 60 60 59 58 57 63 63 63 65 65 67 68 65 68 68 70 70 72 72 71 71 72 72 73 74 71 72 72 73 73 73 73 75 77 77 77 79 77 75 73 73 71 71 72 73 74 74 74 74 75 73 74 74 73 72 70 67 70 69 71
41 40 41 39 39 35 40 45 50 51 51 55 55 56 53 53 57 59 59 59 59 60 60 60 61 60 60 60 61 61 60 60 61 60 61 61 61 60 60 61 60 60 61 62 63 64 66 66 69 65 66 67 70 70 72 73 72 72 72 71 70 73 71 71 74 73 74 74 73 72 76 77 77 78 78 76 74 73 72 73 72 73 74 73 74 74 74 73 74 71 74 74 73 72 67 66 69
36 39 41 38 37 34 35 44 49 52 52 49 53 55 51 53 57 59 59 59 59 59 59 60 61 61 61 61 60 60 61 61 61 61 61 62 61 62 60 64 61 61 62 61 63 63 66 68 69 67 68 67 70 72 73 72 72 73 72 71 73 72 72 71 72 73 74 72 73 73 76 76 77 78 78 76 75 73 73 73 73 74 74 74 73 74 74 74 74 73 74 75 74 72 69 68 68
33 37 38 32 32 33 30 40 38 48 49 50 50 50 50 54 56 58 59 59 59 60 60 59 60 61 61 60 60 60 60 61 60 62 61 62 61 62 61 62 62 62 61 60 64 66 66 68 70 71 69 68 69 72 74 73 73 73 71 72 72 72 74 73 72 72 72 74 73 75 77 76 76 77 77 77 75 73 73 73 74 74 74 73 74 73 73 74 73 72 72 74 74 74 72 72 71
34 36 37 34 33 34 30 30 32 38 45 43 49 47 47 50 54 57 58 58 59 60 60 61 61 60 62 61 60 60 60 60 60 61 62 62 62 62 60 62 61 61 61 61 65 65 68 69 70 72 71 68 69 72 73 70 70 70 70 71 71 71 73 73 74 73 73 72 72 73 76 76 76 76 76 75 75 73 73 73 73 73 74 73 72 72 72 72 73 73 73 72 74 73 72 72 71
36 36 37 34 33 31 31 31 29 30 35 41 44 45 46 48 51 54 58 58 59 59 59 60 61 61 61 61 60 60 61 59 60 61 62 62 61 61 61 61 61 61 62 63 65 65 68 68 70 72 72 71 70 71 70 69 68 69 69 69 69 70 73 73 73 73 73 72 75 74 75 74 76 75 75 74 74 74 74 73 74 73 73 73 72 72 73 73 74 74 74 74 72 72 70 69 69
36 35 35 34 34 30 31 31 29 28 33 38 39 42 43 45 49 52 55 55 56 57 59 60 60 61 61 62 62 61 62 60 60 61 61 61 60 60 61 63 64 62 64 65 67 66 69 69 69 71 71 72 70 70 70 69 71 69 69 69 69 69 72 71 72 72 70 72 75 75 76 75 76 74 74 74 74 74 73 72 73 73 72 72 73 74 74 74 74 74 73 73 73 71 71 68 68
37 34 35 34 35 32 31 29 28 28 28 31 29 29 34 37 41 49 51 52 55 56 57 59 61 61 61 61 62 62 62 61 60 60 61 60 60 61 62 63 63 63 65 64 67 66 69 69 71 72 71 72 71 71 72 71 71 71 70 69 68 69 71 72 69 71 72 72 74 74 74 75 74 74 74 74 74 73 73 73 73 73 73 74 73 73 73 74 74 73 73 72 70 70 71 70 70
34 33 33 33 33 33 30 27 28 29 28 28 32 28 28 30 32 42 47 47 51 53 55 56 59 61 61 61 61 62 61 62 61 61 60 59 60 62 63 64 64 64 66 65 65 66 68 70 71 73 73 72 72 73 73 72 72 73 73 72 71 71 70 72 73 73 73 73 73 73 74 74 73 73 72 72 73 74 74 73 73 73 74 74 75 73 73 74 75 74 72 73 73 69 67 66 67
34 33 31 31 32 33 31 27 28 29 28 26 26 28 28 30 28 28 39 46 47 51 53 56 58 60 61 62 62 62 61 62 62 61 60 60 60 61 63 64 64 64 65 65 65 64 64 68 71 74 73 73 73 74 74 73 73 74 73 74 73 73 74 73 72 70 72 73 73 73 73 74 74 73 73 74 74 74 74 74 74 74 74 74 75 74 74 72 74 73 73 73 72 69 63 63 66
30 32 34 31 32 33 32 32 29 28 27 25 25 28 30 33 31 31 36 39 46 51 54 56 58 59 62 61 62 62 61 62 62 61 61 60 61 62 64 65 64 63 65 65 65 64 66 68 71 74 74 73 72 75 75 74 74 72 71 71 70 70 70 70 70 69 68 69 68 70 73 73 74 75 74 74 74 74 74 74 75 75 76 75 75 74 75 74 74 73 73 73 71 71 71 64 63
32 32 34 34 34 32 32 31 29 28 29 25 25 28 32 34 45 46 49 46 50 51 55 55 58 60 61 62 63 62 63 61 62 61 61 60 61 62 63 64 64 63 64 65 65 66 68 69 72 73 73 74 73 75 76 75 73 71 71 69 69 70 69 70 72 70 68 68 70 72 73 74 74 73 74 74 75 75 75 75 75 76 75 76 76 76 75 73 72 72 72 72 71 72 71 68 64
30 34 33 32 31 31 30 31 30 29 28 26 24 25 30 38 44 49 49 51 53 56 57 57 56 59 60 61 60 63 61 61 61 61 62 61 62 62 63 64 63 62 63 64 65 66 69 72 73 73 73 73 74 75 76 75 73 72 72 71 70 69 68 71 73 74 73 73 72 72 73 74 75 74 74 76 76 75 75 75 75 76 76 75 76 76 75 73 73 73 73 73 73 73 72 68 65
28 34 32 29 29 29 28 28 29 28 28 28 23 24 29 33 45 48 49 49 51 52 52 53 58 59 60 62 60 60 60 61 61 61 61 61 62 62 63 63 63 63 62 64 65 67 70 72 74 74 73 74 74 76 76 76 74 73 72 71 71 70 70 70 72 72 72 73 73 73 74 74 75 75 75 75 76 77 77 76 76 76 76 76 77 75 74 75 76 74 74 74 73 73 71 69 69
33 32 32 31 30 30 27 27 27 29 29 28 27 22 27 40 43 45 48 48 49 50 51 51 54 56 60 60 61 61 61 61 61 61 61 61 61 62 62 63 63 62 62 65 65 66 69 72 74 75 74 74 74 76 75 76 75 74 73 72 72 72 71 71 71 72 73 74 73 74 74 75 73 74 75 76 76 77 77 77 76 76 76 75 75 75 75 76 76 76 74 73 73 72 70 69 68
31 31 28 28 28 27 29 27 29 29 27 28 25 21 21 33 43 46 47 48 50 51 52 53 54 55 57 61 61 61 62 61 61 61 61 62 62 62 62 62 64 63 63 64 65 66 68 71 74 74 75 74 75 76 75 75 75 74 73 73 73 73 72 72 72 73 73 74 73 73 74 74 73 73 72 74 75 76 77 77 75 75 75 76 76 77 76 74 74 73 74 74 74 73 70 69 68
29 26 26 26 27 29 30 28 31 27 23 25 22 21 20 21 46 45 47 49 50 52 52 54 54 55 57 59 59 61 61 62 61 61 62 62 63 62 62 63 63 64 63 64 64 65 68 70 72 74 75 75 75 75 75 74 73 73 73 73 73 73 73 71 72 72 73 73 72 73 74 74 74 73 74 74 73 72 77 76 76 76 76 77 77 77 77 76 74 74 73 74 74 73 73 72 69
26 24 26 23 26 25 23 26 24 23 21 22 20 22 29 42 45 45 46 48 49 51 52 53 54 55 57 57 59 61 61 61 62 63 63 62 62 62 62 64 65 65 65 65 64 64 67 70 72 74 74 75 75 75 75 74 74 73 73 73 73 73 73 73 72 72 72 72 72 72 74 74 73 74 74 73 72 73 75 76 77 76 77 77 77 77 78 77 76 75 76 74 73 73 73 72 70
24 24 24 23 24 21 22 23 23 19 20 21 22 22 27 43 44 46 47 49 50 51 52 53 55 57 58 58 59 58 61 62 62 62 62 63 63 63 63 64 64 65 64 64 64 66 67 68 72 73 74 75 75 75 75 75 74 74 74 73 73 73 73 73 72 71 71 72 72 72 71 70 72 72 72 73 73 72 73 74 76 77 78 79 80 79 79 78 78 76 76 75 73 73 73 73 72
22 22 21 22 26 19 22 20 17 16 20 20 19 18 37 35 45 44 46 49 51 52 52 55 56 56 58 58 59 58 59 62 66 63 61 62 63 64 63 63 64 64 64 63 64 66 68 69 71 73 74 75 75 75 75 75 74 74 74 73 72 73 72 72 72 71 71 71 70 70 72 70 69 72 71 73 74 74 74 75 75 75 77 79 79 79 78 78 79 77 77 77 75 72 74 72 70
18 20 20 20 23 25 19 18 14 17 18 19 21 21 35 43 47 47 48 48 50 51 53 54 56 55 57 57 57 58 59 60 60 61 63 63 64 65 64 64 64 64 66 64 65 66 67 69 71 73 73 74 74 75 75 74 74 74 75 74 72 73 73 72 72 73 73 72 72 71 72 73 71 72 74 73 74 74 74 74 76 74 76 76 78 78 79 77 78 76 76 76 75 72 74 74 73
17 18 19 21 23 23 26 27 20 18 15 22 24 39 42 44 44 44 46 47 49 51 52 53 54 55 57 57 57 58 59 61 60 60 61 64 63 64 64 65 64 64 64 64 67 67 68 69 70 72 73 73 74 75 74 74 75 74 75 74 72 71 71 71 69 71 69 71 72 71 70 70 70 72 73 73 74 75 75 74 74 72 75 76 77 78 77 78 79 77 75 76 75 73 74 74 72
19 17 17 22 22 22 27 20 26 19 15 24 23 33 36 36 39 45 46 45 47 49 50 51 53 55 55 55 57 58 58 60 61 62 62 63 63 64 63 63 64 64 64 65 67 67 68 69 70 71 72 73 73 73 73 73 74 74 75 74 74 72 69 68 68 68 70 70 71 72 70 70 70 69 70 68 72 74 75 75 74 74 74 74 75 75 76 77 78 75 76 77 75 76 75 75 73
16 15 21 18 21 21 25 27 19 17 15 28 21 31 32 29 43 43 44 45 46 48 50 50 51 53 54 55 57 58 59 59 59 60 61 62 63 62 64 63 63 64 66 65 65 65 66 68 68 67 69 70 71 70 71 72 73 72 72 74 73 72 70 69 68 69 70 70 68 69 69 69 69 71 72 73 73 72 74 75 75 74 74 75 75 75 76 76 77 76 74 74 75 77 76 75 75
18 18 18 20 24 22 23 25 26 22 13 27 32 34 35 44 46 45 45 47 47 48 49 49 51 52 53 54 55 57 58 58 59 59 61 61 62 62 61 62 62 62 63 63 63 64 63 65 67 67 67 69 71 70 71 72 72 72 71 73 74 74 73 71 70 70 69 70 70 68 69 67 69 69 70 72 72 70 71 72 71 71 71 72 73 73 73 75 76 76 74 72 73 76 76 75 74
16 17 18 19 21 22 23 21 24 21 19 25 29 27 38 45 47 46 46 47 47 48 49 50 50 52 52 53 53 55 57 58 59 59 60 62 63 63 63 61 62 62 63 63 62 63 64 63 64 65 67 67 68 68 69 71 71 72 72 73 72 73 72 71 70 70 70 70 70 70 67 67 69 69 70 70 71 71 71 71 69 71 70 72 74 73 73 75 76 76 75 75 74 76 76 74 74
16 16 17 17 19 20 22 24 22 22 24 25 25 27 41 45 47 46 46 46 46 48 48 49 50 51 52 51 52 54 54 57 59 59 59 61 64 64 64 65 65 61 60 61 62 62 62 62 62 64 64 65 65 67 69 71 72 71 71 72 72 72 72 71 69 69 70 69 69 70 70 69 67 70 70 68 70 69 71 70 69 69 71 71 73 75 72 73 75 75 75 73 73 75 76 75 74